Weather History for KPSP - July, 2013

Change the Weather History Date:

Monday, July 22, 2013

  Actual Average Record
Temperature  
Mean Temperature 87 °F 93 °F  
Max Temperature 95 °F 108 °F 121 °F (2006)
Min Temperature 78 °F 78 °F 61 °F (1957)
Degree Days  
Heating Degree Days 0 0  
Month to date heating degree days 0 0  
Since 1 June heating degree days 0 0  
Since 1 July heating degree days 0 0  
Cooling Degree Days 22 28  
Month to date cooling degree days 633 596  
Year to date cooling degree days 2421 2002  
Since 1 June cooling degree days 1379 1243  
Growing Degree Days 37 (Base 50)    
Moisture  
Dew Point 66 °F    
Average Humidity 54    
Maximum Humidity 67    
Minimum Humidity 41    
Precipitation  
Precipitation 0.00 in 0.01 in 1.13 in (1934)
Month to date precipitation 0.83 0.10  
Year to date precipitation 1.80 3.04  
Since 1 July precipitation 0.83 0.10  
Snow  
Snow 0.00 in - - ()
Month to date snowfall 0.0  
Year to date snowfall 0.0  
Since 1 July snowfall 0.0  
Snow Depth 0.00 in    
Sea Level Pressure  
Sea Level Pressure 29.86 in    
Wind  
Wind Speed 5 mph (WNW)    
Max Wind Speed 10 mph    
Max Gust Speed 25 mph    
Visibility 10 miles    
Events      
T = Trace of Precipitation, MM = Missing Value Source: NWS Daily Summary

Daily Weather History Graph

Daily Weather History Graph

Search for Another Location

Airport or City:

Trip Planner

Search our weather history database for the weather conditions in past years. The results will help you decide how hot, cold, wet, or windy it might be!

Date:

Astronomy

Jul. 22, 2013 Rise Set
Actual Time 5:51 AM PDT 7:53 PM PDT
Civil Twilight 5:23 AM PDT 8:21 PM PDT
Nautical Twilight 4:49 AM PDT 8:55 PM PDT
Astronomical Twilight 4:12 AM PDT 9:31 PM PDT
Moon 7:47 PM PDT (7/22) 5:49 AM PDT (7/22)
Length of Visible Light 14h 58m
Length of Day
14h 02m
Full, 100% of the Moon is Illuminated
Jul 22
Full
Jul 29
Last Quarter
Aug 6
New
Aug 14
First Quarter
Aug 20
Full

Hourly Weather History & Observations

Time (PDT) Temp. Heat Index Dew Point Humidity Pressure Visibility Wind Dir Wind Speed Gust Speed Precip Events Conditions
12:53 AM 81.0 °F 82.7 °F 64.9 °F 58% 29.85 in 10.0 mi NNW 5.8 mph - N/A   Partly Cloudy
1:53 AM 81.0 °F 83.0 °F 66.0 °F 60% 29.85 in 10.0 mi WNW 3.5 mph - N/A   Clear
2:53 AM 80.1 °F 82.3 °F 66.9 °F 64% 29.84 in 10.0 mi North 5.8 mph - N/A   Clear
3:53 AM 80.1 °F 82.1 °F 66.0 °F 62% 29.83 in 10.0 mi NW 6.9 mph - N/A   Clear
4:53 AM 79.0 °F - 66.9 °F 66% 29.83 in 10.0 mi NW 5.8 mph - N/A   Clear
5:53 AM 80.1 °F 82.1 °F 66.0 °F 62% 29.85 in 10.0 mi NW 4.6 mph - N/A   Mostly Cloudy
6:53 AM 80.1 °F 82.7 °F 68.0 °F 67% 29.87 in 10.0 mi Calm Calm - N/A   Overcast
7:53 AM 82.9 °F 87.0 °F 70.0 °F 65% 29.89 in 9.0 mi SSW 3.5 mph - N/A   Mostly Cloudy
9:53 AM 89.6 °F 93.4 °F 68.0 °F 49% 29.91 in 10.0 mi Variable 5.8 mph - N/A   Scattered Clouds
10:53 AM 89.6 °F 93.4 °F 68.0 °F 49% 29.91 in 10.0 mi East 8.1 mph - N/A   Scattered Clouds
11:53 AM 91.4 °F 95.4 °F 68.0 °F 46% 29.91 in 10.0 mi SSE 6.9 mph - N/A   Scattered Clouds
12:53 PM 93.9 °F 97.5 °F 66.9 °F 41% 29.89 in 10.0 mi SSE 5.8 mph - N/A   Scattered Clouds
1:53 PM 93.0 °F 95.9 °F 66.0 °F 41% 29.87 in 10.0 mi WSW 4.6 mph - N/A   Scattered Clouds
2:53 PM 93.0 °F 96.4 °F 66.9 °F 42% 29.86 in 10.0 mi SW 4.6 mph - N/A   Mostly Cloudy
3:53 PM 90.0 °F 93.6 °F 68.0 °F 48% 29.85 in 10.0 mi SW 8.1 mph - N/A   Mostly Cloudy
4:53 PM 93.0 °F 97.4 °F 68.0 °F 44% 29.83 in 10.0 mi SW 4.6 mph - N/A   Clear
5:53 PM 95.0 °F 97.4 °F 64.9 °F 37% 29.81 in 10.0 mi Calm Calm - N/A   Clear
6:53 PM 95.0 °F 97.4 °F 64.9 °F 37% 29.80 in 10.0 mi Calm Calm - N/A   Scattered Clouds
7:53 PM 93.0 °F 94.2 °F 63.0 °F 37% 29.82 in 10.0 mi NW 11.5 mph - N/A   Clear
8:53 PM 91.9 °F 92.9 °F 63.0 °F 38% 29.84 in 10.0 mi NW 13.8 mph - N/A   Clear
9:53 PM 89.1 °F 90.0 °F 63.0 °F 42% 29.86 in 10.0 mi NW 12.7 mph - N/A   Clear
10:53 PM 87.1 °F 87.8 °F 63.0 °F 44% 29.87 in 10.0 mi NW 10.4 mph 19.6 mph N/A   Clear
11:53 PM 86.0 °F 86.8 °F 63.0 °F 46% 29.87 in 10.0 mi NW 8.1 mph - N/A   Clear